| time (UTC) | temp F | wind direction | speed MPH | gust MPH | rain 1hr in | rain 24hr in | rain mn in | humidity % | barometer mb |
| 20260831060528 | 73 | 182 | 3.0 | 7.0 | 0.00 | 0.02 | 0.00 | 87 | 1013.1 |
| 20260831060022 | 73 | 159 | 2.0 | 7.0 | 0.00 | 0.02 | 0.00 | 87 | 1013.2 |
| 20260831055523 | 74 | 169 | 2.0 | 6.0 | 0.00 | 0.02 | 0.00 | 87 | 1013.2 |
| 20260831055025 | 74 | 157 | 3.0 | 6.0 | 0.00 | 0.02 | 0.00 | 86 | 1013.3 |
| 20260831054527 | 74 | 154 | 3.0 | 7.0 | 0.00 | 0.02 | 0.00 | 86 | 1013.2 |
| 20260831054023 | 74 | 152 | 4.0 | 7.0 | 0.00 | 0.02 | 0.00 | 87 | 1013.3 |
| 20260831053623 | 74 | 159 | 3.0 | 7.0 | 0.00 | 0.02 | 0.00 | 87 | 1013.4 |
| 20260831053020 | 74 | 157 | 3.0 | 6.0 | 0.00 | 0.02 | 0.00 | 88 | 1013.4 |
| 20260831052520 | 74 | 158 | 3.0 | 7.0 | 0.00 | 0.02 | 0.00 | 88 | 1013.3 |
| 20260831052018 | 74 | 155 | 4.0 | 8.0 | 0.00 | 0.02 | 0.00 | 88 | 1013.3 |
| 20260831051521 | 74 | 164 | 4.0 | 8.0 | 0.00 | 0.02 | 0.00 | 88 | 1013.4 |
| 20260831051017 | 74 | 149 | 4.0 | 9.0 | 0.00 | 0.02 | 0.00 | 88 | 1013.4 |
| 20260831050518 | 74 | 162 | 3.0 | 9.0 | 0.00 | 0.02 | 0.00 | 88 | 1013.4 |
| 20260831050016 | 74 | 143 | 4.0 | 7.0 | 0.00 | 0.02 | 0.00 | 88 | 1013.5 |
| 20260831045516 | 74 | 134 | 3.0 | 5.0 | 0.00 | 0.02 | 0.02 | 89 | 1013.6 |
| 20260831045020 | 74 | 131 | 2.0 | 4.0 | 0.00 | 0.02 | 0.02 | 89 | 1013.6 |
| 20260831044516 | 74 | 131 | 2.0 | 6.0 | 0.00 | 0.02 | 0.02 | 88 | 1013.7 |
| 20260831044016 | 75 | 106 | 1.0 | 6.0 | 0.00 | 0.02 | 0.02 | 87 | 1013.8 |
| 20260831043518 | 74 | 104 | 1.0 | 3.0 | 0.00 | 0.02 | 0.02 | 87 | 1013.9 |
| 20260831043015 | 75 | 113 | 0.0 | 4.0 | 0.00 | 0.02 | 0.02 | 87 | 1014.0 |
| 20260831042515 | 75 | 113 | 1.0 | 4.0 | 0.00 | 0.02 | 0.02 | 87 | 1014.0 |
| 20260831042015 | 75 | 114 | 0.0 | 2.0 | 0.00 | 0.02 | 0.02 | 87 | 1014.0 |
| 20260831041516 | 74 | 74 | 0.0 | 1.0 | 0.00 | 0.02 | 0.02 | 88 | 1014.0 |
| 20260831041019 | 74 | 110 | 0.0 | 0.0 | 0.00 | 0.02 | 0.02 | 88 | 1014.0 |
| 20260831040515 | 74 | 110 | 0.0 | 0.0 | 0.00 | 0.02 | 0.02 | 88 | 1014.0 |
| 20260831040018 | 74 | 110 | 0.0 | 0.0 | 0.00 | 0.02 | 0.02 | 89 | 1014.0 |
| 20260831035515 | 74 | 110 | 0.0 | 0.0 | 0.00 | 0.02 | 0.02 | 88 | 1014.0 |
| 20260831035014 | 75 | 110 | 0.0 | 0.0 | 0.00 | 0.02 | 0.02 | 87 | 1014.1 |
| 20260831034514 | 75 | 92 | 0.0 | 0.0 | 0.00 | 0.02 | 0.02 | 87 | 1014.1 |
| 20260831034014 | 75 | 92 | 0.0 | 0.0 | 0.00 | 0.02 | 0.02 | 87 | 1014.2 |
| 20260831033514 | 75 | 92 | 0.0 | 0.0 | 0.00 | 0.02 | 0.02 | 88 | 1014.1 |
| 20260831033018 | 75 | 117 | 0.0 | 0.0 | 0.00 | 0.02 | 0.02 | 89 | 1014.2 |
| 20260831032518 | 75 | 117 | 0.0 | 0.0 | 0.00 | 0.02 | 0.02 | 88 | 1014.2 |
| 20260831032014 | 75 | 117 | 0.0 | 2.0 | 0.00 | 0.02 | 0.02 | 89 | 1014.1 |
| 20260831031524 | 75 | 117 | 0.0 | 3.0 | 0.00 | 0.02 | 0.02 | 89 | 1013.9 |
| 20260831031013 | 75 | 117 | 1.0 | 4.0 | 0.00 | 0.02 | 0.02 | 89 | 1013.9 |
| 20260831030513 | 75 | 117 | 2.0 | 4.0 | 0.00 | 0.02 | 0.02 | 90 | 1013.9 |
| 20260831030015 | 75 | 117 | 1.0 | 4.0 | 0.00 | 0.02 | 0.02 | 90 | 1014.0 |
| 20260831025513 | 75 | 117 | 2.0 | 4.0 | 0.00 | 0.02 | 0.02 | 90 | 1014.0 |
| 20260831025013 | 75 | 117 | 1.0 | 4.0 | 0.00 | 0.02 | 0.02 | 90 | 1014.0 |
| 20260831024518 | 75 | 111 | 2.0 | 5.0 | 0.00 | 0.02 | 0.02 | 91 | 1013.9 |
| 20260831024013 | 74 | 133 | 2.0 | 5.0 | 0.00 | 0.02 | 0.02 | 91 | 1013.9 |
| 20260831023512 | 74 | 96 | 0.0 | 2.0 | 0.00 | 0.02 | 0.02 | 91 | 1014.0 |
| 20260831023012 | 74 | 96 | 0.0 | 0.0 | 0.00 | 0.02 | 0.02 | 91 | 1014.2 |
| 20260831022512 | 75 | 96 | 0.0 | 0.0 | 0.00 | 0.02 | 0.02 | 90 | 1014.3 |
| 20260831022011 | 75 | 96 | 0.0 | 1.0 | 0.00 | 0.02 | 0.02 | 90 | 1014.2 |
| 20260831021512 | 75 | 96 | 0.0 | 2.0 | 0.00 | 0.02 | 0.02 | 90 | 1014.2 |
| 20260831021011 | 75 | 96 | 0.0 | 3.0 | 0.00 | 0.02 | 0.02 | 90 | 1014.0 |
| 20260831020611 | 75 | 96 | 1.0 | 3.0 | 0.00 | 0.02 | 0.02 | 91 | 1014.1 |
| 20260831020010 | 74 | 96 | 0.0 | 3.0 | 0.00 | 0.02 | 0.02 | 91 | 1014.2 |
| 20260831015509 | 74 | 96 | 0.0 | 3.0 | 0.00 | 0.02 | 0.02 | 91 | 1013.8 |
| 20260831015013 | 75 | 96 | 0.0 | 2.0 | 0.00 | 0.02 | 0.02 | 90 | 1013.9 |
| 20260831014513 | 75 | 96 | 0.0 | 0.0 | 0.00 | 0.02 | 0.02 | 89 | 1014.1 |
| 20260831014010 | 76 | 96 | 0.0 | 0.0 | 0.00 | 0.02 | 0.02 | 89 | 1014.0 |
| 20260831013514 | 76 | 96 | 0.0 | 0.0 | 0.00 | 0.02 | 0.02 | 88 | 1014.1 |
| 20260831013010 | 76 | 96 | 0.0 | 0.0 | 0.00 | 0.02 | 0.02 | 88 | 1013.9 |
| 20260831012510 | 77 | 96 | 0.0 | 0.0 | 0.00 | 0.02 | 0.02 | 87 | 1013.7 |
| 20260831012012 | 77 | 96 | 0.0 | 0.0 | 0.00 | 0.02 | 0.02 | 86 | 1013.6 |
| 20260831011515 | 77 | 96 | 0.0 | 3.0 | 0.00 | 0.02 | 0.02 | 86 | 1013.5 |
| 20260831011008 | 77 | 96 | 0.0 | 5.0 | 0.00 | 0.02 | 0.02 | 86 | 1013.4 |
| 20260831010509 | 77 | 81 | 0.0 | 7.0 | 0.00 | 0.02 | 0.02 | 86 | 1013.4 |
| 20260831010025 | 77 | 104 | 2.0 | 8.0 | 0.00 | 0.02 | 0.02 | 86 | 1013.3 |
| 20260831005508 | 77 | 114 | 1.0 | 8.0 | 0.00 | 0.02 | 0.02 | 86 | 1013.2 |
| 20260831005007 | 78 | 120 | 4.0 | 7.0 | 0.00 | 0.02 | 0.02 | 85 | 1013.1 |
| 20260831004507 | 77 | 82 | 0.0 | 3.0 | 0.00 | 0.02 | 0.02 | 85 | 1013.4 |
| 20260831004007 | 77 | 113 | 0.0 | 3.0 | 0.00 | 0.02 | 0.02 | 87 | 1013.6 |
| 20260831003506 | 77 | 113 | 0.0 | 3.0 | 0.00 | 0.02 | 0.02 | 87 | 1013.5 |
| 20260831003006 | 77 | 148 | 1.0 | 3.0 | 0.00 | 0.02 | 0.02 | 87 | 1013.5 |
| 20260831002506 | 77 | 111 | 1.0 | 7.0 | 0.00 | 0.02 | 0.02 | 87 | 1013.5 |
| 20260831002007 | 78 | 119 | 1.0 | 7.0 | 0.00 | 0.02 | 0.02 | 87 | 1013.5 |
| 20260831001506 | 78 | 117 | 2.0 | 5.0 | 0.00 | 0.02 | 0.02 | 86 | 1013.4 |
| 20260831001006 | 78 | 126 | 0.0 | 6.0 | 0.00 | 0.02 | 0.02 | 86 | 1013.6 |
| 20260831000507 | 78 | 126 | 2.0 | 6.0 | 0.00 | 0.02 | 0.02 | 87 | 1013.5 |
| 20260831000004 | 78 | 146 | 4.0 | 6.0 | 0.00 | 0.02 | 0.02 | 88 | 1013.4 |
| 20260830235504 | 78 | 134 | 3.0 | 5.0 | 0.00 | 0.02 | 0.02 | 89 | 1013.6 |
| 20260830235004 | 78 | 117 | 0.0 | 2.0 | 0.00 | 0.02 | 0.02 | 88 | 1013.8 |
| 20260830234503 | 79 | 117 | 0.0 | 2.0 | 0.00 | 0.02 | 0.02 | 87 | 1014.0 |
| 20260830234005 | 80 | 117 | 0.0 | 0.0 | 0.00 | 0.02 | 0.02 | 86 | 1014.2 |
| 20260830233504 | 80 | 117 | 0.0 | 0.0 | 0.00 | 0.02 | 0.02 | 86 | 1014.3 |
| 20260830233003 | 80 | 117 | 0.0 | 0.0 | 0.00 | 0.02 | 0.02 | 85 | 1014.4 |
| 20260830232505 | 81 | 117 | 0.0 | 0.0 | 0.00 | 0.02 | 0.02 | 85 | 1014.5 |
| 20260830232005 | 81 | 117 | 0.0 | 0.0 | 0.00 | 0.02 | 0.02 | 85 | 1014.4 |
| 20260830231503 | 81 | 117 | 0.0 | 0.0 | 0.00 | 0.02 | 0.02 | 85 | 1014.4 |
| 20260830231007 | 81 | 117 | 0.0 | 0.0 | 0.00 | 0.02 | 0.02 | 85 | 1014.4 |
| 20260830230501 | 81 | 117 | 0.0 | 0.0 | 0.00 | 0.02 | 0.02 | 84 | 1014.3 |
| 20260830230003 | 81 | 117 | 0.0 | 0.0 | 0.00 | 0.02 | 0.02 | 84 | 1014.3 |
| 20260830225501 | 81 | 117 | 0.0 | 0.0 | 0.00 | 0.02 | 0.02 | 84 | 1014.2 |
| 20260830225002 | 81 | 117 | 0.0 | 0.0 | 0.00 | 0.02 | 0.02 | 84 | 1014.2 |
| 20260830224502 | 81 | 117 | 0.0 | 0.0 | 0.00 | 0.02 | 0.02 | 83 | 1014.1 |
| 20260830224003 | 81 | 117 | 0.0 | 0.0 | 0.00 | 0.02 | 0.02 | 83 | 1014.0 |
| 20260830223502 | 81 | 117 | 0.0 | 0.0 | 0.00 | 0.02 | 0.02 | 82 | 1013.9 |
| 20260830223001 | 81 | 117 | 0.0 | 1.0 | 0.00 | 0.02 | 0.02 | 81 | 1013.7 |
| 20260830222501 | 81 | 117 | 0.0 | 4.0 | 0.00 | 0.02 | 0.02 | 81 | 1013.7 |
| 20260830222100 | 81 | 117 | 0.0 | 4.0 | 0.00 | 0.02 | 0.02 | 80 | 1013.7 |
| 20260830221600 | 82 | 285 | 0.0 | 2.0 | 0.00 | 0.02 | 0.02 | 82 | 1013.7 |
| 20260830221103 | 82 | 285 | 0.0 | 1.0 | 0.00 | 0.02 | 0.02 | 81 | 1013.9 |
| 20260830220600 | 82 | 285 | 0.0 | 1.0 | 0.00 | 0.02 | 0.02 | 81 | 1013.8 |
| 20260830220059 | 82 | 285 | 0.0 | 1.0 | 0.00 | 0.02 | 0.02 | 80 | 1013.9 |
| 20260830215601 | 82 | 285 | 0.0 | 0.0 | 0.00 | 0.02 | 0.02 | 80 | 1014.1 |
| 20260830215101 | 82 | 285 | 0.0 | 0.0 | 0.00 | 0.02 | 0.02 | 78 | 1014.1 |
| 20260830214605 | 82 | 285 | 0.0 | 0.0 | 0.00 | 0.02 | 0.02 | 79 | 1014.0 |
| 20260830214058 | 82 | 285 | 0.0 | 0.0 | 0.00 | 0.02 | 0.02 | 78 | 1014.1 |
| 20260830213558 | 82 | 285 | 0.0 | 0.0 | 0.00 | 0.02 | 0.02 | 78 | 1014.1 |
| 20260830213109 | 82 | 285 | 0.0 | 4.0 | 0.00 | 0.02 | 0.02 | 79 | 1014.0 |
| 20260830212557 | 82 | 285 | 0.0 | 4.0 | 0.00 | 0.02 | 0.02 | 78 | 1014.0 |
| 20260830212059 | 82 | 290 | 0.0 | 4.0 | 0.00 | 0.02 | 0.02 | 78 | 1014.1 |
| 20260830211605 | 82 | 225 | 0.0 | 4.0 | 0.00 | 0.02 | 0.02 | 77 | 1014.1 |
| 20260830211056 | 82 | 236 | 1.0 | 4.0 | 0.00 | 0.02 | 0.02 | 78 | 1014.0 |
| 20260830210556 | 82 | 161 | 0.0 | 4.0 | 0.00 | 0.02 | 0.02 | 80 | 1014.0 |
| 20260830210054 | 82 | 162 | 2.0 | 5.0 | 0.00 | 0.02 | 0.02 | 79 | 1013.8 |
| 20260830205554 | 82 | 170 | 3.0 | 5.0 | 0.00 | 0.02 | 0.02 | 79 | 1013.7 |
| 20260830205054 | 81 | 165 | 1.0 | 4.0 | 0.00 | 0.02 | 0.02 | 79 | 1013.8 |
| 20260830204554 | 81 | 153 | 1.0 | 5.0 | 0.00 | 0.02 | 0.02 | 80 | 1013.9 |
| 20260830204057 | 81 | 135 | 1.0 | 5.0 | 0.00 | 0.02 | 0.02 | 79 | 1013.9 |
| 20260830203554 | 81 | 167 | 2.0 | 6.0 | 0.00 | 0.02 | 0.02 | 79 | 1013.9 |
| 20260830203054 | 81 | 147 | 3.0 | 6.0 | 0.00 | 0.02 | 0.02 | 77 | 1014.0 |
| 20260830202554 | 81 | 159 | 0.0 | 0.0 | 0.00 | 0.02 | 0.02 | 79 | 1014.1 |
| 20260830202053 | 80 | 159 | 0.0 | 0.0 | 0.00 | 0.02 | 0.02 | 79 | 1014.2 |
| 20260830201610 | 80 | 159 | 0.0 | 1.0 | 0.00 | 0.02 | 0.02 | 79 | 1014.2 |
| 20260830201055 | 80 | 159 | 0.0 | 6.0 | 0.00 | 0.02 | 0.02 | 79 | 1014.3 |
| 20260830200552 | 80 | 159 | 0.0 | 6.0 | 0.00 | 0.02 | 0.02 | 78 | 1014.2 |
| 20260830200052 | 80 | 175 | 3.0 | 9.0 | 0.00 | 0.02 | 0.02 | 78 | 1014.2 |
| 20260830195552 | 80 | 154 | 2.0 | 9.0 | 0.00 | 0.02 | 0.02 | 77 | 1014.2 |
| 20260830195052 | 80 | 175 | 4.0 | 9.0 | 0.00 | 0.02 | 0.02 | 76 | 1014.3 |
| 20260830194553 | 81 | 167 | 5.0 | 11.0 | 0.00 | 0.02 | 0.02 | 76 | 1014.2 |
| 20260830194051 | 81 | 193 | 5.0 | 11.0 | 0.00 | 0.02 | 0.02 | 76 | 1014.1 |
| 20260830193551 | 81 | 156 | 6.0 | 11.0 | 0.00 | 0.02 | 0.02 | 75 | 1014.1 |
| 20260830193051 | 81 | 194 | 6.0 | 13.0 | 0.00 | 0.02 | 0.02 | 74 | 1014.1 |
| 20260830192552 | 81 | 161 | 7.0 | 13.0 | 0.00 | 0.02 | 0.02 | 75 | 1014.0 |
| 20260830192049 | 81 | 202 | 6.0 | 11.0 | 0.00 | 0.02 | 0.02 | 74 | 1014.1 |
| 20260830191551 | 81 | 183 | 6.0 | 13.0 | 0.00 | 0.02 | 0.02 | 75 | 1014.0 |
| 20260830191048 | 81 | 148 | 6.0 | 13.0 | 0.00 | 0.02 | 0.02 | 76 | 1014.0 |
| 20260830190550 | 80 | 179 | 4.0 | 16.0 | 0.00 | 0.02 | 0.02 | 77 | 1014.0 |
| 20260830190048 | 80 | 190 | 7.0 | 16.0 | 0.00 | 0.02 | 0.02 | 76 | 1014.0 |
| 20260830185548 | 80 | 187 | 7.0 | 13.0 | 0.00 | 0.02 | 0.02 | 77 | 1013.9 |
| 20260830185048 | 80 | 150 | 4.0 | 14.0 | 0.00 | 0.02 | 0.02 | 77 | 1014.0 |
| 20260830184547 | 80 | 181 | 7.0 | 15.0 | 0.00 | 0.02 | 0.02 | 75 | 1013.9 |
| 20260830184050 | 80 | 163 | 8.0 | 15.0 | 0.00 | 0.02 | 0.02 | 74 | 1013.9 |
| 20260830183547 | 80 | 156 | 7.0 | 14.0 | 0.00 | 0.02 | 0.02 | 75 | 1014.0 |
| 20260830183049 | 80 | 155 | 6.0 | 14.0 | 0.00 | 0.02 | 0.02 | 75 | 1013.9 |
| 20260830182547 | 81 | 190 | 8.0 | 16.0 | 0.00 | 0.02 | 0.02 | 75 | 1013.9 |
| 20260830182046 | 81 | 173 | 7.0 | 18.0 | 0.00 | 0.02 | 0.02 | 76 | 1013.7 |
| 20260830181602 | 80 | 179 | 10.0 | 18.0 | 0.00 | 0.02 | 0.02 | 75 | 1013.9 |
| 20260830181048 | 80 | 217 | 8.0 | 18.0 | 0.00 | 0.02 | 0.02 | 77 | 1013.9 |
| 20260830180544 | 80 | 186 | 8.0 | 18.0 | 0.00 | 0.02 | 0.02 | 77 | 1013.9 |
| 20260830180142 | 80 | 169 | 8.0 | 16.0 | 0.00 | 0.02 | 0.02 | 78 | 1014.1 |
| 20260830174502 | 78 | 178 | 5.0 | 11.0 | 0.00 | 0.02 | 0.02 | 82 | 1014.2 |
| 20260830174001 | 78 | 198 | 5.0 | 8.0 | 0.00 | 0.02 | 0.02 | 81 | 1014.4 |
| 20260830173501 | 78 | 201 | 4.0 | 9.0 | 0.00 | 0.02 | 0.02 | 80 | 1014.5 |
| 20260830173001 | 78 | 167 | 3.0 | 9.0 | 0.00 | 0.02 | 0.02 | 78 | 1014.8 |
| 20260830172503 | 78 | 178 | 3.0 | 9.0 | 0.00 | 0.02 | 0.02 | 77 | 1014.7 |
| 20260830172003 | 78 | 176 | 3.0 | 11.0 | 0.00 | 0.02 | 0.02 | 77 | 1014.7 |
| 20260830171501 | 78 | 179 | 4.0 | 11.0 | 0.00 | 0.02 | 0.02 | 78 | 1014.8 |
| 20260830171101 | 78 | 157 | 4.0 | 12.0 | 0.00 | 0.02 | 0.02 | 78 | 1014.9 |
| 20260830170600 | 78 | 161 | 6.0 | 12.0 | 0.00 | 0.02 | 0.02 | 77 | 1015.0 |
| 20260830170059 | 78 | 170 | 6.0 | 13.0 | 0.00 | 0.02 | 0.02 | 78 | 1015.0 |
| 20260830165601 | 78 | 192 | 6.0 | 13.0 | 0.00 | 0.02 | 0.02 | 77 | 1015.2 |
| 20260830165058 | 78 | 178 | 4.0 | 13.0 | 0.00 | 0.02 | 0.02 | 80 | 1015.2 |
| 20260830164557 | 77 | 195 | 7.0 | 13.0 | 0.00 | 0.02 | 0.02 | 79 | 1015.2 |
| 20260830164056 | 77 | 196 | 6.0 | 11.0 | 0.00 | 0.02 | 0.02 | 80 | 1015.2 |
| 20260830163555 | 77 | 221 | 4.0 | 11.0 | 0.00 | 0.02 | 0.02 | 80 | 1015.3 |
| 20260830163059 | 76 | 184 | 6.0 | 11.0 | 0.00 | 0.02 | 0.02 | 81 | 1015.2 |
| 20260830162552 | 76 | 241 | 6.0 | 10.0 | 0.00 | 0.02 | 0.02 | 80 | 1015.1 |
| 20260830162050 | 75 | 157 | 5.0 | 10.0 | 0.00 | 0.02 | 0.02 | 83 | 1015.0 |
| 20260830161550 | 75 | 173 | 4.0 | 10.0 | 0.00 | 0.02 | 0.02 | 83 | 1015.0 |
| 20260830161048 | 74 | 157 | 5.0 | 11.0 | 0.00 | 0.02 | 0.02 | 84 | 1014.9 |
| 20260830160548 | 74 | 151 | 7.0 | 12.0 | 0.00 | 0.02 | 0.02 | 84 | 1014.5 |
| 20260830160046 | 74 | 121 | 7.0 | 13.0 | 0.00 | 0.02 | 0.02 | 85 | 1014.3 |
| 20260830155545 | 73 | 148 | 9.0 | 13.0 | 0.00 | 0.02 | 0.02 | 85 | 1014.2 |
| 20260830155044 | 72 | 146 | 8.0 | 13.0 | 0.00 | 0.02 | 0.02 | 85 | 1014.4 |
| 20260830154543 | 72 | 130 | 6.0 | 12.0 | 0.00 | 0.02 | 0.02 | 87 | 1014.4 |
| 20260830154044 | 72 | 132 | 8.0 | 11.0 | 0.00 | 0.02 | 0.02 | 86 | 1014.5 |
| 20260830153540 | 72 | 139 | 7.0 | 11.0 | 0.00 | 0.02 | 0.02 | 86 | 1014.8 |
| 20260830153045 | 71 | 149 | 8.0 | 11.0 | 0.00 | 0.02 | 0.02 | 86 | 1014.9 |
| 20260830152539 | 71 | 134 | 6.0 | 10.0 | 0.00 | 0.02 | 0.02 | 88 | 1015.0 |
| 20260830152038 | 71 | 161 | 5.0 | 9.0 | 0.00 | 0.02 | 0.02 | 88 | 1015.3 |
| 20260830151537 | 70 | 145 | 5.0 | 9.0 | 0.01 | 0.02 | 0.02 | 89 | 1015.2 |
| 20260830151037 | 70 | 132 | 6.0 | 9.0 | 0.01 | 0.02 | 0.02 | 89 | 1015.2 |
| 20260830150536 | 70 | 139 | 5.0 | 11.0 | 0.02 | 0.02 | 0.02 | 89 | 1015.3 |
| 20260830150037 | 69 | 145 | 6.0 | 11.0 | 0.02 | 0.02 | 0.02 | 90 | 1015.2 |
| 20260830145535 | 69 | 134 | 6.0 | 12.0 | 0.02 | 0.02 | 0.02 | 90 | 1015.1 |
| 20260830145034 | 69 | 136 | 7.0 | 12.0 | 0.02 | 0.02 | 0.02 | 90 | 1015.0 |
| 20260830144541 | 69 | 137 | 7.0 | 12.0 | 0.02 | 0.02 | 0.02 | 90 | 1015.1 |
| 20260830144038 | 69 | 141 | 6.0 | 10.0 | 0.02 | 0.02 | 0.02 | 90 | 1015.1 |
| 20260830143534 | 69 | 147 | 6.0 | 10.0 | 0.02 | 0.02 | 0.02 | 90 | 1015.2 |
| 20260830143033 | 69 | 144 | 5.0 | 8.0 | 0.02 | 0.02 | 0.02 | 90 | 1015.4 |
| 20260830142535 | 69 | 137 | 4.0 | 7.0 | 0.02 | 0.02 | 0.02 | 90 | 1015.6 |
| 20260830142033 | 69 | 132 | 4.0 | 6.0 | 0.02 | 0.02 | 0.02 | 90 | 1015.7 |
| 20260830141532 | 69 | 140 | 4.0 | 7.0 | 0.01 | 0.01 | 0.01 | 90 | 1015.7 |
| 20260830141032 | 69 | 132 | 4.0 | 7.0 | 0.01 | 0.01 | 0.01 | 90 | 1015.8 |
| 20260830140531 | 68 | 140 | 4.0 | 7.0 | 0.00 | 0.00 | 0.00 | 91 | 1015.9 |
| 20260830140032 | 68 | 134 | 3.0 | 5.0 | 0.00 | 0.00 | 0.00 | 91 | 1016.0 |
| 20260830135534 | 69 | 130 | 1.0 | 2.0 | 0.00 | 0.00 | 0.00 | 91 | 1016.1 |
| 20260830135031 | 69 | 130 | 0.0 | 2.0 | 0.00 | 0.00 | 0.00 | 91 | 1016.2 |
| 20260830134534 | 69 | 130 | 0.0 | 1.0 | 0.00 | 0.00 | 0.00 | 91 | 1016.3 |
| 20260830134031 | 69 | 130 | 0.0 | 3.0 | 0.00 | 0.00 | 0.00 | 90 | 1016.4 |
| 20260830133530 | 69 | 130 | 0.0 | 3.0 | 0.00 | 0.00 | 0.00 | 90 | 1016.5 |
| 20260830133039 | 69 | 130 | 0.0 | 4.0 | 0.00 | 0.00 | 0.00 | 89 | 1016.3 |
| 20260830132528 | 69 | 134 | 0.0 | 4.0 | 0.00 | 0.00 | 0.00 | 89 | 1015.9 |
| 20260830132028 | 69 | 142 | 2.0 | 4.0 | 0.00 | 0.00 | 0.00 | 90 | 1015.8 |
| 20260830131529 | 69 | 165 | 1.0 | 3.0 | 0.00 | 0.00 | 0.00 | 90 | 1015.9 |
| 20260830131028 | 69 | 165 | 0.0 | 0.0 | 0.00 | 0.00 | 0.00 | 90 | 1016.1 |
| 20260830130531 | 69 | 165 | 0.0 | 0.0 | 0.00 | 0.00 | 0.00 | 90 | 1016.1 |
| 20260830130028 | 69 | 165 | 0.0 | 0.0 | 0.00 | 0.00 | 0.00 | 90 | 1016.0 |
| 20260830125527 | 69 | 165 | 0.0 | 0.0 | 0.00 | 0.00 | 0.00 | 91 | 1016.0 |
| 20260830125026 | 68 | 165 | 0.0 | 0.0 | 0.00 | 0.00 | 0.00 | 90 | 1016.1 |
| 20260830124527 | 68 | 165 | 0.0 | 0.0 | 0.00 | 0.00 | 0.00 | 90 | 1016.1 |
| 20260830124025 | 68 | 165 | 0.0 | 0.0 | 0.00 | 0.00 | 0.00 | 90 | 1015.9 |
| 20260830123526 | 68 | 165 | 0.0 | 0.0 | 0.00 | 0.00 | 0.00 | 90 | 1015.6 |
| 20260830123024 | 68 | 165 | 0.0 | 1.0 | 0.00 | 0.00 | 0.00 | 89 | 1015.6 |
| 20260830122523 | 69 | 165 | 0.0 | 1.0 | 0.00 | 0.00 | 0.00 | 89 | 1015.6 |
| 20260830122022 | 69 | 165 | 0.0 | 1.0 | 0.00 | 0.00 | 0.00 | 89 | 1015.4 |
| 20260830121522 | 69 | 165 | 0.0 | 2.0 | 0.00 | 0.00 | 0.00 | 88 | 1015.4 |
| 20260830121021 | 69 | 165 | 0.0 | 2.0 | 0.00 | 0.00 | 0.00 | 88 | 1015.3 |
| 20260830120526 | 69 | 165 | 0.0 | 2.0 | 0.00 | 0.00 | 0.00 | 88 | 1015.0 |
| 20260830120022 | 69 | 141 | 0.0 | 2.0 | 0.00 | 0.00 | 0.00 | 88 | 1015.0 |
| 20260830115527 | 69 | 141 | 1.0 | 2.0 | 0.00 | 0.00 | 0.00 | 88 | 1014.9 |
| 20260830115022 | 68 | 142 | 0.0 | 4.0 | 0.00 | 0.00 | 0.00 | 88 | 1014.8 |
| 20260830114523 | 68 | 153 | 1.0 | 4.0 | 0.00 | 0.00 | 0.00 | 88 | 1014.7 |
| 20260830114022 | 68 | 167 | 0.0 | 2.0 | 0.00 | 0.00 | 0.00 | 88 | 1014.7 |
| 20260830113522 | 68 | 150 | 0.0 | 4.0 | 0.00 | 0.00 | 0.00 | 88 | 1014.6 |
| 20260830113020 | 68 | 150 | 1.0 | 4.0 | 0.00 | 0.00 | 0.00 | 88 | 1014.5 |
| 20260830112520 | 68 | 159 | 2.0 | 4.0 | 0.00 | 0.00 | 0.00 | 88 | 1014.5 |
| 20260830112023 | 69 | 136 | 1.0 | 7.0 | 0.00 | 0.00 | 0.00 | 87 | 1014.4 |
| 20260830111520 | 69 | 154 | 3.0 | 8.0 | 0.00 | 0.00 | 0.00 | 87 | 1014.4 |
| 20260830111021 | 68 | 138 | 3.0 | 8.0 | 0.00 | 0.00 | 0.00 | 87 | 1014.3 |
| 20260830110519 | 68 | 164 | 2.0 | 6.0 | 0.00 | 0.00 | 0.00 | 88 | 1014.3 |
| 20260830110019 | 68 | 138 | 2.0 | 4.0 | 0.00 | 0.00 | 0.00 | 88 | 1014.2 |
| 20260830105522 | 68 | 159 | 0.0 | 2.0 | 0.00 | 0.00 | 0.00 | 88 | 1014.2 |
| 20260830105017 | 69 | 157 | 0.0 | 2.0 | 0.00 | 0.00 | 0.00 | 87 | 1014.2 |
| 20260830104517 | 69 | 160 | 0.0 | 2.0 | 0.00 | 0.00 | 0.00 | 86 | 1014.3 |
| 20260830104017 | 69 | 164 | 0.0 | 5.0 | 0.00 | 0.00 | 0.00 | 85 | 1014.3 |
| 20260830103517 | 69 | 153 | 2.0 | 5.0 | 0.00 | 0.00 | 0.00 | 85 | 1014.2 |
| 20260830103017 | 69 | 158 | 2.0 | 5.0 | 0.00 | 0.00 | 0.00 | 85 | 1014.1 |
| 20260830102518 | 69 | 149 | 3.0 | 5.0 | 0.00 | 0.00 | 0.00 | 85 | 1014.1 |
| 20260830102017 | 69 | 157 | 2.0 | 5.0 | 0.00 | 0.00 | 0.00 | 85 | 1014.2 |
| 20260830101515 | 69 | 152 | 1.0 | 5.0 | 0.00 | 0.00 | 0.00 | 85 | 1014.2 |
| 20260830101015 | 69 | 150 | 2.0 | 5.0 | 0.00 | 0.00 | 0.00 | 85 | 1014.2 |
| 20260830100515 | 69 | 158 | 2.0 | 6.0 | 0.00 | 0.00 | 0.00 | 84 | 1014.2 |
| 20260830100014 | 69 | 146 | 3.0 | 8.0 | 0.00 | 0.00 | 0.00 | 83 | 1014.2 |
| 20260830095516 | 69 | 164 | 3.0 | 8.0 | 0.00 | 0.00 | 0.00 | 83 | 1014.1 |
| 20260830095014 | 69 | 150 | 3.0 | 7.0 | 0.00 | 0.00 | 0.00 | 83 | 1014.1 |
| 20260830094525 | 69 | 155 | 4.0 | 8.0 | 0.00 | 0.00 | 0.00 | 83 | 1014.1 |
| 20260830094014 | 69 | 140 | 4.0 | 9.0 | 0.00 | 0.00 | 0.00 | 83 | 1014.0 |
| 20260830093512 | 69 | 159 | 4.0 | 9.0 | 0.00 | 0.00 | 0.00 | 83 | 1014.0 |
| 20260830093013 | 69 | 153 | 4.0 | 8.0 | 0.00 | 0.00 | 0.00 | 83 | 1013.9 |
| 20260830092512 | 69 | 170 | 3.0 | 9.0 | 0.00 | 0.00 | 0.00 | 83 | 1014.0 |
| 20260830092012 | 69 | 174 | 5.0 | 9.0 | 0.00 | 0.00 | 0.00 | 83 | 1014.0 |
| 20260830091511 | 69 | 157 | 4.0 | 9.0 | 0.00 | 0.00 | 0.00 | 83 | 1014.1 |
| 20260830091011 | 69 | 155 | 3.0 | 9.0 | 0.00 | 0.00 | 0.00 | 82 | 1014.2 |
| 20260830090510 | 69 | 166 | 5.0 | 9.0 | 0.00 | 0.00 | 0.00 | 82 | 1014.2 |
| 20260830090036 | 69 | 171 | 3.0 | 9.0 | 0.00 | 0.00 | 0.00 | 82 | 1014.1 |
| 20260830085510 | 69 | 169 | 4.0 | 9.0 | 0.00 | 0.00 | 0.00 | 82 | 1014.2 |
| 20260830085010 | 69 | 161 | 3.0 | 9.0 | 0.00 | 0.00 | 0.00 | 82 | 1014.3 |
| 20260830084510 | 69 | 158 | 4.0 | 9.0 | 0.00 | 0.00 | 0.00 | 82 | 1014.3 |
| 20260830084013 | 69 | 156 | 3.0 | 6.0 | 0.00 | 0.00 | 0.00 | 82 | 1014.3 |
| 20260830083509 | 69 | 173 | 3.0 | 7.0 | 0.00 | 0.00 | 0.00 | 82 | 1014.3 |
| 20260830083010 | 69 | 189 | 3.0 | 7.0 | 0.00 | 0.00 | 0.00 | 82 | 1014.3 |
| 20260830082509 | 69 | 178 | 3.0 | 7.0 | 0.00 | 0.00 | 0.00 | 81 | 1014.3 |
| 20260830082009 | 69 | 184 | 2.0 | 7.0 | 0.00 | 0.00 | 0.00 | 81 | 1014.4 |
| 20260830081508 | 69 | 188 | 3.0 | 7.0 | 0.00 | 0.00 | 0.00 | 81 | 1014.3 |
| 20260830081008 | 70 | 161 | 3.0 | 9.0 | 0.00 | 0.00 | 0.00 | 81 | 1014.2 |
| 20260830080508 | 70 | 168 | 5.0 | 9.0 | 0.00 | 0.00 | 0.00 | 80 | 1014.1 |
| 20260830080016 | 70 | 159 | 4.0 | 8.0 | 0.00 | 0.00 | 0.00 | 80 | 1014.2 |
| 20260830075507 | 70 | 173 | 3.0 | 8.0 | 0.00 | 0.00 | 0.00 | 80 | 1014.1 |
| 20260830075008 | 70 | 153 | 4.0 | 8.0 | 0.00 | 0.00 | 0.00 | 80 | 1014.2 |
| 20260830074505 | 70 | 159 | 4.0 | 8.0 | 0.00 | 0.00 | 0.00 | 79 | 1014.2 |
| 20260830074005 | 70 | 159 | 3.0 | 7.0 | 0.00 | 0.00 | 0.00 | 80 | 1014.3 |
| 20260830073504 | 70 | 141 | 4.0 | 7.0 | 0.00 | 0.00 | 0.00 | 79 | 1014.3 |
| 20260830073004 | 70 | 142 | 4.0 | 8.0 | 0.00 | 0.00 | 0.00 | 80 | 1014.3 |
| 20260830072504 | 70 | 165 | 3.0 | 8.0 | 0.00 | 0.00 | 0.00 | 80 | 1014.4 |
| 20260830072003 | 70 | 185 | 3.0 | 8.0 | 0.00 | 0.00 | 0.00 | 79 | 1014.4 |
| 20260830071502 | 70 | 144 | 4.0 | 9.0 | 0.00 | 0.00 | 0.00 | 79 | 1014.5 |
| 20260830071002 | 70 | 163 | 5.0 | 9.0 | 0.00 | 0.00 | 0.00 | 79 | 1014.4 |
| 20260830070501 | 70 | 153 | 4.0 | 8.0 | 0.00 | 0.00 | 0.00 | 79 | 1014.6 |
| 20260830070002 | 70 | 151 | 4.0 | 9.0 | 0.00 | 0.00 | 0.00 | 79 | 1014.7 |
| 20260830065600 | 70 | 160 | 5.0 | 9.0 | 0.00 | 0.00 | 0.00 | 79 | 1014.7 |
| 20260830065100 | 70 | 152 | 5.0 | 9.0 | 0.00 | 0.00 | 0.00 | 79 | 1014.7 |
| 20260830064600 | 70 | 157 | 5.0 | 9.0 | 0.00 | 0.00 | 0.00 | 79 | 1014.7 |
| 20260830064100 | 70 | 142 | 5.0 | 10.0 | 0.00 | 0.00 | 0.00 | 79 | 1014.7 |
| 20260830063600 | 70 | 146 | 5.0 | 10.0 | 0.00 | 0.00 | 0.00 | 79 | 1014.7 |
| 20260830063059 | 70 | 146 | 4.0 | 9.0 | 0.00 | 0.00 | 0.00 | 79 | 1014.8 |
| 20260830062602 | 70 | 171 | 4.0 | 10.0 | 0.00 | 0.00 | 0.00 | 80 | 1014.8 |
| 20260830062058 | 70 | 157 | 4.0 | 10.0 | 0.00 | 0.00 | 0.00 | 80 | 1014.8 |
| 20260830061635 | 70 | 158 | 5.0 | 10.0 | 0.00 | 0.00 | 0.00 | 80 | 1014.8 |
| 20260830061058 | 69 | 155 | 5.0 | 10.0 | 0.00 | 0.00 | 0.00 | 80 | 1014.8 |